Wind_Speed
30 27 25 25 28 29 28 29 32 32 28 29 35 38 38 42 47 44 42 47 47 44 43 39 36 34 30 29 27 26 27 27 25 25 25 24 23 23 22 22 20 19 20 21 22 22 21 21 21 21 20 18 18 18 18 19 21 21 22 24 25 26 25
31 27 26 28 30 30 31 32 30 27 25 28 34 39 39 42 46 43 41 46 47 45 44 40 36 35 33 31 28 24 25 25 23 22 22 24 24 23 23 24 22 20 21 22 22 23 22 21 22 22 20 19 18 18 18 19 20 21 23 24 26 27 27
31 29 30 33 34 33 32 31 28 28 30 31 34 38 40 41 42 39 36 41 44 43 41 39 37 36 34 31 27 23 23 22 20 18 18 20 23 24 24 23 22 21 21 22 23 23 22 22 23 23 21 18 17 18 18 18 19 21 22 23 25 27 28
33 34 38 39 37 35 33 33 33 34 34 34 33 35 37 38 39 36 32 35 37 36 37 39 37 33 30 28 25 23 22 20 18 16 15 16 18 23 26 24 22 21 20 21 22 21 22 23 24 24 20 17 16 17 18 18 19 20 20 21 23 26 27
38 41 44 42 38 36 36 37 38 38 36 36 36 36 37 38 40 38 34 34 31 27 30 36 37 32 28 26 24 24 23 20 17 16 17 17 16 18 24 26 25 22 21 21 22 21 22 24 25 24 20 17 16 16 17 18 19 19 19 20 21 23 26
44 44 42 40 39 37 36 37 38 37 36 36 37 39 39 39 41 40 37 34 30 24 24 29 33 34 33 31 28 27 25 20 17 17 19 21 18 16 20 25 25 23 22 23 23 22 22 22 23 21 19 18 17 16 16 17 18 19 18 19 19 20 23
45 43 40 40 40 38 36 37 36 35 37 39 39 40 40 38 40 40 38 38 33 25 21 23 29 34 33 30 29 28 25 21 19 19 20 23 22 17 18 22 23 22 22 22 22 22 20 19 20 20 20 20 19 17 16 16 17 16 17 17 18 18 19
43 42 41 43 42 40 40 40 37 36 38 39 37 37 38 38 40 40 40 42 36 26 21 20 26 31 29 25 25 25 24 22 22 22 21 22 23 20 17 19 20 21 22 22 22 22 20 19 18 19 20 21 21 20 18 16 16 16 16 18 17 16 16
49 46 46 48 48 46 45 43 40 38 38 37 38 38 38 40 42 41 43 45 39 27 20 19 23 28 27 24 25 24 22 24 25 23 21 23 24 22 19 20 22 24 24 25 24 22 21 20 18 17 18 21 22 22 19 17 17 17 18 19 18 17 15
57 55 54 53 51 50 48 46 43 41 39 38 39 40 42 45 45 42 44 46 40 30 23 21 23 28 28 26 26 26 24 26 28 26 25 26 25 23 21 21 24 29 30 28 26 24 22 21 19 18 19 21 23 23 21 19 19 19 20 21 20 19 17
59 55 51 49 49 50 50 48 47 44 40 39 39 42 46 46 43 42 43 43 39 33 28 24 23 28 31 28 27 28 27 27 28 29 28 26 23 23 23 21 23 31 36 33 28 25 24 23 22 21 21 23 25 24 22 22 22 22 23 23 22 21 19
61 55 48 45 47 49 49 48 48 46 42 39 41 46 47 45 43 43 41 38 38 36 31 27 24 24 29 32 31 29 26 27 31 32 31 27 24 23 25 23 21 27 34 35 32 30 28 26 25 24 23 24 25 25 24 25 25 24 25 24 23 22 22
61 57 51 46 47 49 49 48 48 48 46 43 43 45 43 42 43 42 37 35 37 35 33 31 25 18 20 29 34 30 25 25 30 31 30 29 26 24 25 24 22 24 29 33 34 33 31 30 29 28 25 24 25 25 26 27 26 25 25 23 20 20 22
61 57 53 50 49 50 51 50 49 49 48 46 44 42 40 39 41 39 34 35 36 36 35 32 25 18 16 23 33 35 32 29 28 28 30 32 33 31 29 26 23 23 26 29 32 33 32 32 33 31 27 24 24 25 25 26 27 26 25 22 18 17 19
62 59 54 51 51 52 52 52 51 51 50 47 44 43 40 40 41 38 35 36 36 36 37 35 29 26 23 24 31 35 36 35 32 30 31 35 38 36 30 25 23 24 27 30 33 34 35 36 36 33 29 25 24 25 26 28 29 28 26 23 19 16 17
61 58 52 49 51 52 54 56 54 53 51 48 46 46 43 41 41 39 38 40 37 33 34 35 34 32 31 30 31 32 34 35 34 32 31 32 33 32 30 28 28 29 30 34 36 37 37 38 36 32 30 28 26 27 29 31 32 31 27 25 22 18 18
59 58 51 43 43 48 56 62 59 52 49 48 48 45 40 36 36 37 41 42 36 30 31 34 36 37 36 34 34 34 36 37 37 36 34 33 34 36 36 36 35 33 34 36 39 38 38 37 34 32 32 31 31 32 31 32 34 33 29 27 25 23 22
59 58 50 42 43 51 59 62 60 54 50 48 46 41 35 32 33 36 40 39 34 32 34 34 37 40 39 37 37 38 39 41 41 40 40 40 41 41 43 43 41 38 36 37 39 38 37 35 33 33 34 36 37 36 34 33 34 33 30 28 28 26 25
60 56 51 47 50 56 59 59 59 58 53 46 42 39 35 34 35 36 36 35 34 36 36 35 38 43 43 41 42 43 43 43 43 42 44 46 46 44 45 47 47 44 41 39 39 38 37 36 36 37 39 40 41 41 39 36 35 34 32 30 30 30 28
63 58 51 49 52 54 56 57 57 59 57 49 43 42 40 40 41 38 37 36 34 35 37 37 39 43 47 47 47 47 47 45 43 42 43 46 48 47 47 48 48 49 46 42 40 40 39 40 40 41 44 45 44 43 43 42 41 39 35 32 32 32 32
68 62 51 44 47 51 54 55 52 55 60 57 49 45 43 43 44 42 40 38 36 35 37 39 39 41 45 49 51 51 50 49 47 45 43 42 43 44 45 45 45 46 46 45 44 44 44 44 44 45 47 47 46 44 43 41 42 41 37 33 32 33 34
68 68 56 45 45 51 54 54 49 48 57 62 55 47 44 44 45 46 44 42 40 39 37 38 40 40 41 45 50 53 53 53 51 49 47 45 42 41 41 41 42 42 44 46 47 47 48 49 49 49 50 50 50 48 44 40 39 39 36 34 33 34 35
64 68 64 52 46 51 55 56 50 45 52 62 60 52 47 46 46 49 49 45 43 42 40 39 39 39 39 41 45 49 53 57 56 54 51 48 46 45 44 43 43 44 45 45 46 47 48 49 51 52 53 53 53 52 48 44 41 39 37 36 35 35 36
61 63 65 57 50 52 57 58 54 47 49 58 63 61 56 51 49 50 51 49 46 45 45 42 39 38 40 40 41 43 46 51 55 57 57 55 52 51 50 49 48 48 47 46 46 47 49 50 50 52 55 56 54 52 51 50 46 43 40 38 37 37 38
62 60 60 56 51 53 57 59 57 52 49 53 62 68 64 56 53 53 51 51 51 48 47 45 41 39 40 39 39 41 41 42 45 50 55 59 59 59 58 56 54 52 52 51 50 50 51 52 52 52 54 56 54 50 50 50 48 46 44 42 40 40 42
61 62 61 57 53 55 59 60 60 56 50 51 59 68 69 63 58 55 53 53 53 51 48 47 43 41 41 40 38 39 40 39 40 42 46 51 56 60 63 63 61 59 58 57 57 56 55 55 56 56 57 58 57 53 52 51 50 49 48 46 43 44 46
55 61 63 60 57 58 62 64 63 60 55 52 55 61 65 66 63 61 58 55 52 51 50 47 44 42 42 43 42 41 41 41 41 42 45 46 47 51 55 60 63 64 64 64 63 63 62 61 60 60 60 61 61 60 59 59 56 53 52 51 49 48 49
49 55 60 62 59 59 64 67 67 65 62 57 54 55 57 61 63 63 62 59 54 51 51 50 47 46 45 46 47 46 46 45 44 44 45 46 46 46 46 50 54 58 61 64 65 67 68 68 66 65 64 64 65 64 64 63 61 58 56 54 52 52 51
46 50 58 63 61 59 64 70 71 69 67 62 56 54 54 56 59 59 61 62 59 54 53 52 50 49 49 50 51 51 51 50 48 46 46 46 47 48 47 47 48 50 52 56 59 63 65 67 67 68 69 69 68 66 64 63 63 63 61 57 55 55 54
44 46 53 59 63 62 63 70 74 72 70 65 60 57 55 55 57 56 54 56 58 57 57 56 54 53 53 54 54 54 54 53 52 50 49 49 50 50 50 50 49 50 50 51 53 54 55 56 58 62 67 71 72 71 70 68 65 64 64 62 59 61 60
45 44 48 51 59 65 65 69 74 74 72 69 65 62 59 57 58 57 53 51 52 53 55 56 55 54 54 54 54 56 56 56 55 54 53 53 54 54 53 52 52 53 53 52 51 50 49 49 50 53 57 62 65 68 72 74 71 69 69 68 66 66 68
51 45 46 47 51 59 64 67 72 73 71 70 67 64 61 59 59 59 57 55 52 49 50 52 53 52 52 52 51 53 54 55 55 55 54 54 56 57 56 56 56 56 55 55 55 54 52 52 52 51 52 54 55 56 59 63 67 69 73 76 76 72 73
60 46 46 49 50 52 58 64 68 69 67 66 63 60 59 59 59 59 58 56 53 49 47 48 50 51 52 51 50 50 51 52 52 52 51 51 53 56 58 57 57 57 58 59 59 58 57 57 57 57 57 57 56 55 54 55 57 61 68 76 79 74 68
64 50 45 50 52 52 54 58 60 60 59 57 55 54 55 56 57 57 55 52 50 47 46 46 47 48 49 50 51 50 50 51 51 50 50 50 50 52 55 56 55 55 57 60 62 63 62 62 62 63 63 62 61 61 61 59 58 59 63 70 77 77 67
62 56 48 48 52 54 55 55 54 53 53 51 49 51 53 55 55 54 51 47 44 42 42 42 43 45 47 48 49 50 50 51 50 50 50 51 51 52 54 54 52 51 52 56 59 62 65 66 66 67 67 65 64 64 65 65 64 65 65 67 71 75 73
57 58 51 48 50 52 52 53 53 50 48 45 43 43 45 46 47 48 48 47 44 41 41 40 40 42 45 46 46 47 48 48 48 48 48 48 49 51 52 51 50 49 49 50 51 55 59 62 64 65 65 64 65 66 66 67 68 69 70 68 66 68 73
51 56 54 51 51 51 50 50 51 49 46 41 35 31 31 33 37 40 42 45 44 42 42 43 42 42 44 45 45 44 44 45 47 47 47 47 48 50 50 49 48 47 47 47 47 48 50 52 54 55 57 59 61 62 63 66 70 73 72 70 67 66 67
Wind_Direction
246 243 238 235 237 238 237 235 235 238 236 233 235 236 234 231 233 237 236 235 237 240 243 242 239 244 251 254 255 257 259 261 262 262 259 254 250 246 244 245 245 243 238 238 241 238 233 236 243 247 248 251 254 258 263 266 266 264 258 254 252 251 250
247 244 238 235 235 235 236 238 239 240 238 233 232 233 232 231 235 241 240 238 239 240 241 241 240 243 247 248 250 252 255 257 258 261 261 256 252 250 250 249 247 243 239 238 238 236 234 238 245 249 250 253 259 266 270 271 270 266 261 255 252 250 248
240 238 235 232 231 230 233 237 238 236 235 233 232 234 234 233 236 242 243 240 240 242 243 243 242 242 244 244 245 246 249 253 256 261 267 264 254 248 248 247 244 242 239 238 239 237 234 236 243 248 251 254 263 273 276 276 275 270 265 259 254 250 247
234 233 234 232 230 229 228 230 231 230 233 236 238 242 244 242 240 244 248 246 244 245 245 244 243 242 243 244 243 245 250 252 253 256 268 275 261 247 244 245 243 241 240 241 242 240 234 234 240 246 249 254 263 272 278 280 279 275 268 260 253 250 247
235 233 237 239 236 232 229 229 231 230 231 233 236 241 246 245 244 244 247 251 253 250 245 243 243 241 240 241 243 247 252 250 248 253 262 271 267 250 243 242 240 238 238 240 241 240 236 234 237 241 244 252 259 265 274 280 279 275 269 260 254 250 247
239 238 239 242 241 237 233 234 237 239 238 237 238 242 243 244 247 246 248 256 261 258 250 244 242 240 236 238 242 245 250 253 253 255 262 266 265 253 240 237 236 235 234 236 238 238 235 234 238 241 244 249 256 262 269 274 275 273 267 260 255 253 250
239 240 239 239 238 236 235 233 233 237 240 240 241 244 246 247 252 252 253 259 262 258 255 246 238 236 237 242 247 246 248 255 256 255 261 264 262 255 238 233 232 229 228 231 235 236 233 231 236 241 244 248 252 258 263 267 271 269 262 257 255 255 255
234 235 236 236 234 229 229 228 225 226 234 238 240 244 249 251 254 256 256 259 260 256 255 249 235 232 236 241 246 246 244 247 251 253 253 253 257 255 239 229 228 225 226 229 231 235 233 229 234 242 246 248 249 251 255 262 265 261 258 257 255 254 255
229 225 225 229 230 228 228 230 226 223 226 233 235 237 241 244 246 249 252 257 260 257 254 249 231 224 224 226 232 239 242 244 249 250 244 243 252 253 234 221 221 220 223 229 231 234 235 232 235 244 247 244 244 247 250 254 257 255 255 258 254 248 249
229 226 225 228 232 234 236 237 234 226 221 224 232 234 235 238 240 241 247 254 260 259 253 244 225 214 212 212 218 228 239 245 247 249 247 245 250 251 239 228 222 218 219 224 228 232 237 238 238 241 243 238 237 241 245 248 250 250 252 256 254 246 242
230 231 231 233 234 236 238 240 239 235 225 221 227 233 237 240 240 241 247 253 258 259 256 248 230 215 212 210 210 218 232 244 246 245 246 245 247 254 253 244 230 222 219 220 225 232 234 236 238 240 241 238 236 238 242 244 246 246 248 255 257 248 239
230 230 229 227 229 233 237 239 240 242 236 227 226 232 239 243 242 243 247 250 254 258 257 254 247 230 218 213 212 215 226 241 246 243 240 239 244 255 259 252 237 227 222 220 225 233 233 233 237 240 241 242 241 238 237 239 244 246 249 256 262 255 243
230 229 226 222 222 227 232 235 238 241 241 237 235 236 239 242 244 247 247 247 251 254 253 253 253 242 221 214 215 219 225 239 250 252 250 246 245 248 251 251 243 231 224 222 226 231 232 233 238 240 241 245 245 240 237 240 246 249 253 261 269 265 252
232 229 226 221 217 220 224 227 232 236 238 239 241 242 241 240 243 247 246 244 246 246 247 246 237 221 209 207 213 220 225 232 244 254 258 254 250 247 243 242 245 238 226 222 226 232 234 237 241 242 243 246 246 241 240 244 249 252 255 261 269 274 267
233 231 228 223 218 216 217 221 226 232 234 236 239 242 242 240 240 242 241 239 239 238 241 243 233 219 211 206 209 218 224 227 233 243 251 252 254 253 245 237 242 243 231 223 227 234 238 241 243 244 246 247 245 241 239 242 248 252 254 257 262 272 276
230 229 228 226 221 216 214 215 220 226 230 230 233 237 241 243 243 242 238 237 237 235 236 240 239 232 225 216 212 215 219 223 228 236 244 249 249 248 246 244 246 245 236 228 229 233 237 241 244 247 250 251 249 249 246 244 247 250 251 254 259 264 268
227 226 223 223 224 220 216 214 215 219 223 225 229 234 239 245 248 246 242 239 239 235 231 234 237 236 232 225 218 217 218 221 226 232 235 238 238 237 239 244 247 247 241 235 233 236 240 243 246 249 253 255 256 257 254 248 245 245 247 250 256 260 262
222 223 218 216 222 224 222 217 212 212 217 221 224 228 231 238 248 250 247 244 238 233 229 229 230 231 229 225 221 219 218 220 224 228 229 232 237 239 240 241 242 242 241 239 239 240 242 245 247 249 252 255 257 258 257 251 242 238 241 247 252 257 260
217 219 216 214 221 226 226 220 210 209 214 217 220 222 221 226 237 245 246 243 236 232 230 227 224 223 221 219 217 216 217 219 222 225 228 230 233 237 240 242 243 243 241 239 239 240 242 245 247 249 251 254 256 257 257 255 246 238 239 245 250 254 258
214 215 213 213 221 227 230 226 215 208 210 212 215 218 216 218 225 232 237 238 233 229 228 227 224 220 218 217 216 215 215 218 222 226 229 231 232 235 238 241 245 246 245 241 237 237 240 244 247 250 252 254 256 256 258 258 253 247 245 245 246 251 255
213 213 209 209 218 226 231 232 225 213 208 209 212 215 215 217 222 226 232 236 234 229 226 225 224 220 217 216 218 218 218 219 222 226 230 234 237 239 240 241 241 241 241 241 238 237 238 241 244 247 250 252 254 255 258 257 252 249 248 245 244 248 253
212 211 206 203 211 221 228 231 229 219 211 209 211 213 214 215 219 225 229 232 234 233 229 226 224 220 215 216 218 220 221 222 225 227 230 233 235 238 240 243 244 242 240 240 241 242 242 242 243 245 248 250 252 253 253 251 248 247 246 245 245 248 252
208 208 207 203 206 215 222 225 225 221 214 210 209 211 214 213 216 224 228 228 230 233 232 230 227 221 218 220 222 222 221 222 225 228 230 232 233 234 236 239 244 247 247 246 246 248 249 248 247 247 248 249 250 250 249 246 245 245 245 246 247 247 250
204 205 206 205 206 211 216 219 219 217 214 211 208 211 215 214 214 220 225 226 227 229 232 234 231 224 221 223 228 230 230 227 226 227 229 231 232 234 235 236 239 243 247 249 249 251 253 252 248 247 248 250 249 249 249 248 247 245 245 247 247 245 247
203 202 202 203 207 210 212 214 214 214 215 213 211 212 215 215 215 217 222 226 228 229 231 233 231 227 226 227 230 235 238 238 235 233 231 231 232 234 237 238 239 241 243 245 247 250 252 253 249 245 245 248 249 248 249 250 251 250 249 248 246 243 243
201 200 200 202 206 209 209 211 212 213 215 214 211 212 213 213 215 217 219 224 229 230 230 229 227 226 228 232 236 238 239 243 246 244 240 235 233 234 236 238 240 242 243 244 246 247 249 251 253 250 246 246 247 247 247 250 254 254 251 249 248 244 241
197 196 199 201 205 207 208 210 212 212 213 212 211 212 214 214 216 218 218 221 225 228 227 224 223 225 229 234 240 242 242 243 245 247 247 243 239 236 236 237 239 241 244 245 246 248 248 248 251 253 252 251 251 250 250 251 254 253 248 246 247 246 242
193 191 195 198 202 205 207 209 211 212 212 213 212 212 215 216 219 221 221 220 223 226 227 224 224 226 231 236 241 244 246 246 246 246 246 246 245 243 240 239 238 240 243 245 246 247 249 248 248 250 251 253 254 254 255 254 252 249 246 244 244 244 242
194 189 192 196 199 202 205 207 210 211 213 214 213 212 214 217 220 222 223 222 223 225 228 229 230 231 235 238 240 243 245 246 248 249 248 247 247 247 247 246 245 244 243 243 244 246 248 249 250 250 250 251 252 252 255 255 252 249 248 246 243 241 240
194 187 190 196 199 202 204 205 208 211 213 214 214 214 215 218 220 222 223 224 225 227 229 232 234 236 238 238 239 241 244 244 246 248 250 249 249 250 251 252 253 252 249 245 243 244 245 246 249 251 252 252 252 251 251 251 251 250 251 250 246 241 240
198 190 188 194 200 203 204 205 207 210 213 215 216 218 220 222 223 225 227 230 231 231 231 232 234 237 238 239 240 242 243 243 244 246 248 249 249 251 253 254 256 257 256 253 250 250 250 248 248 251 252 254 255 255 253 252 252 252 252 252 249 244 240
207 200 192 192 198 202 204 206 208 210 213 216 218 221 225 228 229 230 233 238 239 236 233 231 234 237 239 240 241 241 242 243 245 245 245 245 246 249 251 254 256 258 259 258 256 256 259 260 259 258 258 259 260 260 257 254 254 255 254 252 250 248 244
212 208 198 196 197 200 203 207 209 212 216 219 221 224 228 232 234 234 236 239 239 238 235 234 235 238 239 239 240 240 241 242 244 245 245 244 245 246 249 251 254 256 257 257 257 258 261 264 265 265 264 264 265 264 261 258 257 257 256 254 250 247 244
213 209 201 199 200 201 202 206 211 215 219 221 222 223 226 230 233 233 235 236 236 235 235 236 236 238 238 238 239 240 241 242 244 245 246 246 247 248 250 252 254 255 255 255 256 258 260 263 265 265 265 264 265 265 264 262 261 259 258 257 254 248 244
214 211 204 200 202 202 203 206 210 214 217 219 222 225 229 232 232 232 231 230 228 227 228 230 234 236 237 238 239 240 241 243 245 246 247 248 249 249 251 253 254 255 255 254 255 256 258 260 262 263 264 264 263 263 263 263 264 263 260 259 259 251 246
216 214 207 202 201 202 202 206 209 211 213 218 223 228 230 230 228 227 228 227 226 228 228 231 234 236 236 238 239 240 242 243 244 246 247 248 249 250 251 253 254 256 257 258 258 258 257 258 260 262 264 265 264 264 264 261 260 262 261 260 261 256 253
218 217 211 206 205 205 205 206 209 210 211 215 222 225 224 223 222 224 228 229 230 232 233 234 236 237 237 238 238 240 242 243 244 247 248 249 251 252 253 255 257 259 261 262 263 264 263 263 264 264 265 266 265 265 264 260 258 260 259 258 261 263 261
Height
5830 5832 5835 5836 5836 5837 5839 5839 5838 5839 5845 5849 5849 5849 5851 5853 5851 5850 5853 5852 5852 5856 5857 5860 5864 5865 5867 5869 5871 5873 5875 5876 5878 5878 5880 5881 5882 5884 5885 5886 5888 5888 5889 5890 5891 5892 5892 5893 5894 5895 5896 5897 5897 5897 5898 5899 5899 5900 5900 5901 5902 5902 5903
5826 5830 5831 5831 5831 5833 5833 5833 5836 5841 5844 5845 5844 5844 5847 5848 5845 5845 5848 5849 5850 5852 5852 5856 5860 5862 5864 5866 5868 5871 5872 5873 5875 5876 5878 5878 5879 5881 5882 5883 5885 5886 5887 5888 5889 5890 5890 5891 5892 5893 5894 5895 5895 5895 5896 5896 5897 5897 5897 5898 5898 5899 5900
5823 5825 5824 5824 5824 5827 5829 5831 5835 5837 5837 5838 5839 5838 5839 5840 5840 5841 5844 5845 5846 5847 5849 5853 5857 5859 5861 5863 5866 5867 5869 5871 5872 5874 5875 5876 5877 5878 5879 5881 5882 5883 5885 5886 5887 5887 5888 5889 5889 5890 5891 5892 5893 5893 5893 5894 5894 5894 5894 5895 5896 5896 5897
5818 5818 5815 5816 5819 5823 5826 5827 5829 5830 5831 5833 5835 5834 5834 5835 5836 5838 5840 5841 5842 5844 5847 5850 5853 5856 5859 5861 5862 5864 5866 5868 5870 5871 5872 5873 5875 5876 5877 5878 5879 5880 5882 5883 5884 5885 5885 5886 5887 5888 5889 5890 5891 5891 5891 5891 5892 5892 5892 5893 5893 5894 5895
5810 5808 5807 5811 5817 5820 5820 5821 5821 5824 5826 5828 5830 5830 5830 5831 5832 5834 5836 5836 5838 5842 5845 5847 5850 5853 5855 5857 5859 5861 5863 5866 5867 5868 5870 5871 5873 5873 5874 5875 5876 5877 5878 5880 5881 5882 5883 5884 5884 5885 5887 5888 5889 5889 5889 5889 5890 5890 5890 5891 5891 5892 5892
5800 5802 5806 5810 5813 5815 5817 5818 5819 5821 5824 5825 5826 5825 5826 5828 5828 5829 5832 5832 5834 5839 5842 5844 5847 5850 5852 5854 5856 5859 5860 5862 5864 5866 5867 5868 5870 5871 5871 5872 5873 5874 5876 5877 5878 5879 5880 5881 5882 5883 5885 5886 5886 5887 5888 5888 5888 5888 5888 5889 5889 5889 5890
5795 5799 5804 5805 5807 5810 5812 5813 5816 5819 5820 5820 5821 5822 5823 5826 5825 5826 5828 5827 5829 5836 5839 5842 5845 5847 5849 5852 5854 5856 5858 5859 5861 5863 5865 5865 5866 5869 5869 5870 5871 5872 5873 5874 5875 5876 5877 5878 5880 5881 5882 5883 5884 5885 5885 5885 5886 5886 5886 5887 5887 5887 5888
5791 5795 5797 5798 5800 5802 5802 5805 5810 5814 5814 5815 5819 5821 5822 5824 5822 5823 5825 5820 5823 5833 5837 5839 5842 5844 5847 5849 5851 5853 5855 5857 5858 5860 5862 5863 5864 5866 5867 5867 5868 5869 5870 5871 5872 5873 5874 5875 5877 5878 5879 5881 5882 5882 5883 5884 5884 5884 5884 5885 5885 5886 5886
5782 5784 5785 5786 5788 5791 5793 5798 5804 5808 5810 5812 5814 5816 5818 5817 5817 5819 5819 5814 5818 5831 5835 5836 5839 5841 5843 5845 5847 5850 5852 5854 5855 5857 5859 5860 5861 5863 5865 5865 5865 5866 5867 5868 5869 5870 5871 5872 5874 5875 5877 5878 5879 5880 5881 5882 5882 5882 5882 5883 5883 5884 5884
5769 5772 5774 5777 5781 5786 5789 5793 5798 5801 5806 5808 5808 5810 5810 5808 5811 5815 5814 5811 5817 5827 5831 5833 5835 5837 5839 5841 5843 5846 5848 5850 5852 5853 5855 5857 5858 5859 5861 5862 5863 5863 5864 5865 5866 5867 5868 5870 5871 5873 5874 5876 5877 5878 5879 5879 5879 5880 5880 5881 5881 5882 5882
5763 5769 5775 5779 5781 5782 5784 5788 5791 5794 5799 5803 5804 5804 5802 5803 5809 5811 5811 5812 5816 5822 5826 5829 5832 5834 5836 5838 5840 5842 5845 5847 5848 5850 5851 5853 5854 5855 5856 5859 5860 5860 5861 5862 5864 5865 5866 5867 5869 5870 5872 5873 5874 5875 5876 5876 5877 5878 5878 5878 5879 5880 5881
5758 5767 5773 5777 5778 5778 5780 5783 5787 5789 5793 5797 5799 5797 5797 5802 5806 5806 5809 5813 5814 5817 5822 5825 5828 5831 5833 5835 5837 5839 5841 5843 5844 5845 5847 5848 5850 5851 5852 5854 5856 5857 5858 5860 5861 5863 5863 5864 5866 5868 5869 5871 5872 5873 5874 5874 5874 5875 5875 5876 5877 5878 5879
5751 5759 5766 5771 5773 5774 5776 5779 5781 5784 5787 5789 5791 5793 5796 5800 5800 5801 5808 5812 5811 5814 5819 5821 5825 5828 5830 5833 5835 5836 5838 5839 5839 5841 5842 5844 5845 5847 5848 5849 5852 5853 5855 5857 5859 5860 5861 5861 5863 5865 5867 5868 5869 5869 5870 5871 5871 5872 5873 5874 5875 5876 5876
5742 5749 5756 5763 5767 5768 5770 5773 5775 5779 5781 5783 5785 5789 5793 5796 5795 5799 5805 5807 5807 5811 5815 5819 5822 5824 5826 5829 5831 5832 5834 5835 5836 5838 5838 5840 5842 5843 5845 5846 5848 5850 5852 5854 5855 5856 5858 5859 5860 5862 5864 5865 5866 5867 5868 5868 5869 5870 5870 5871 5872 5873 5874
5734 5741 5748 5755 5759 5762 5764 5766 5770 5773 5775 5778 5780 5783 5787 5789 5791 5795 5799 5801 5802 5807 5812 5815 5818 5820 5821 5824 5826 5827 5829 5831 5833 5835 5836 5838 5839 5839 5841 5843 5845 5847 5849 5850 5852 5853 5854 5855 5857 5859 5861 5862 5864 5865 5865 5866 5866 5867 5868 5868 5870 5871 5872
5729 5736 5741 5745 5752 5757 5757 5759 5762 5765 5768 5772 5775 5777 5780 5783 5787 5791 5793 5794 5798 5805 5810 5811 5813 5815 5817 5819 5821 5823 5825 5827 5829 5831 5832 5834 5835 5836 5838 5839 5842 5844 5846 5847 5848 5849 5850 5852 5853 5855 5857 5858 5860 5862 5863 5864 5864 5864 5865 5866 5867 5868 5869
5724 5730 5734 5740 5747 5748 5746 5748 5754 5759 5763 5767 5770 5773 5776 5779 5783 5785 5787 5789 5796 5803 5805 5806 5808 5811 5813 5815 5817 5819 5821 5823 5824 5826 5828 5829 5830 5832 5834 5835 5837 5840 5842 5844 5844 5845 5847 5848 5850 5852 5853 5854 5855 5857 5859 5861 5861 5861 5862 5863 5864 5865 5866
5719 5724 5730 5736 5737 5734 5736 5744 5752 5756 5758 5761 5765 5769 5772 5776 5779 5780 5782 5786 5792 5796 5798 5800 5803 5806 5809 5812 5814 5815 5816 5817 5819 5821 5824 5825 5827 5828 5830 5831 5833 5835 5838 5840 5841 5842 5843 5845 5847 5848 5849 5850 5851 5853 5855 5856 5857 5857 5859 5860 5861 5861 5862
5713 5719 5724 5725 5723 5725 5734 5743 5748 5752 5755 5759 5763 5764 5767 5771 5774 5775 5777 5780 5785 5789 5792 5795 5798 5801 5804 5807 5809 5810 5811 5812 5814 5817 5819 5821 5823 5825 5826 5828 5829 5831 5833 5836 5837 5838 5840 5841 5842 5844 5844 5846 5847 5849 5851 5852 5854 5855 5856 5857 5858 5858 5859
5707 5712 5716 5716 5718 5725 5731 5735 5742 5748 5751 5755 5758 5759 5761 5764 5767 5769 5771 5774 5778 5783 5787 5790 5792 5795 5798 5800 5803 5805 5807 5808 5809 5811 5813 5815 5818 5820 5822 5824 5826 5827 5829 5831 5833 5834 5836 5837 5838 5839 5840 5841 5843 5845 5846 5848 5850 5851 5852 5853 5854 5855 5855
5699 5706 5711 5713 5718 5723 5726 5729 5737 5742 5745 5748 5752 5754 5755 5759 5762 5764 5767 5770 5774 5778 5781 5785 5788 5790 5792 5796 5798 5801 5803 5804 5804 5806 5808 5810 5812 5815 5816 5818 5821 5823 5825 5826 5828 5829 5830 5832 5833 5834 5835 5836 5838 5840 5841 5842 5844 5846 5847 5848 5849 5851 5851
5692 5700 5705 5708 5714 5719 5723 5727 5731 5735 5740 5743 5747 5750 5752 5754 5757 5760 5763 5766 5769 5772 5776 5780 5783 5785 5788 5791 5794 5796 5798 5799 5801 5802 5804 5805 5808 5809 5811 5812 5814 5817 5819 5821 5822 5824 5825 5826 5828 5829 5830 5831 5833 5835 5836 5838 5840 5841 5842 5843 5845 5846 5848
5685 5691 5697 5703 5709 5714 5718 5720 5723 5729 5734 5737 5742 5746 5746 5748 5753 5756 5759 5762 5765 5768 5771 5774 5778 5782 5784 5787 5789 5791 5793 5795 5797 5799 5801 5803 5804 5806 5807 5808 5809 5811 5813 5815 5818 5819 5820 5822 5824 5825 5825 5826 5828 5829 5831 5833 5835 5836 5837 5839 5841 5843 5844
5677 5683 5691 5698 5701 5704 5708 5711 5716 5721 5726 5732 5738 5739 5739 5743 5749 5751 5755 5758 5761 5764 5767 5770 5774 5777 5780 5783 5785 5787 5789 5791 5793 5795 5797 5799 5801 5802 5803 5805 5806 5807 5808 5810 5813 5814 5815 5817 5819 5820 5820 5821 5823 5825 5826 5828 5829 5831 5833 5835 5837 5839 5841
5672 5678 5686 5690 5693 5696 5702 5708 5711 5714 5719 5726 5730 5730 5733 5740 5744 5746 5751 5755 5757 5760 5764 5766 5769 5772 5775 5778 5781 5783 5785 5786 5788 5791 5793 5795 5797 5798 5799 5801 5802 5804 5805 5806 5807 5809 5810 5811 5814 5816 5816 5816 5818 5821 5822 5822 5824 5827 5829 5831 5833 5835 5836
5667 5672 5677 5681 5684 5690 5696 5702 5706 5710 5716 5720 5722 5724 5729 5735 5739 5742 5747 5750 5752 5756 5760 5762 5765 5767 5769 5773 5776 5779 5781 5782 5783 5785 5787 5789 5792 5793 5794 5796 5798 5800 5801 5802 5803 5804 5806 5806 5807 5809 5810 5811 5812 5815 5817 5818 5821 5823 5824 5825 5827 5829 5830
5662 5664 5669 5674 5679 5683 5690 5696 5701 5708 5713 5714 5716 5722 5727 5731 5734 5737 5741 5745 5748 5751 5755 5758 5761 5763 5765 5768 5771 5773 5776 5778 5779 5780 5781 5783 5785 5786 5788 5790 5791 5793 5795 5797 5799 5800 5801 5801 5801 5801 5802 5803 5805 5808 5809 5812 5816 5817 5817 5818 5819 5821 5822
5656 5658 5662 5668 5674 5678 5683 5690 5697 5702 5706 5709 5713 5720 5724 5727 5729 5732 5736 5740 5743 5746 5751 5754 5757 5759 5761 5764 5765 5767 5770 5772 5773 5775 5776 5777 5778 5780 5782 5783 5785 5787 5788 5790 5792 5793 5794 5795 5795 5795 5795 5796 5797 5799 5801 5804 5807 5808 5807 5809 5812 5814 5816
5652 5653 5657 5664 5669 5672 5678 5685 5692 5697 5702 5706 5711 5715 5719 5722 5725 5727 5731 5736 5739 5742 5746 5749 5752 5755 5757 5758 5760 5761 5763 5765 5766 5768 5770 5771 5772 5774 5775 5777 5779 5780 5782 5783 5785 5786 5787 5788 5788 5789 5789 5790 5791 5793 5794 5795 5797 5798 5800 5802 5805 5807 5809
5648 5651 5656 5661 5665 5668 5674 5681 5687 5692 5698 5703 5708 5711 5713 5717 5720 5723 5727 5731 5735 5739 5742 5744 5747 5749 5750 5752 5754 5756 5757 5759 5760 5762 5763 5765 5766 5767 5769 5771 5772 5773 5775 5776 5778 5779 5780 5781 5781 5781 5782 5783 5784 5786 5787 5788 5789 5790 5793 5796 5798 5800 5801
5644 5647 5651 5657 5662 5665 5670 5677 5683 5688 5692 5698 5702 5706 5709 5712 5715 5719 5723 5727 5731 5735 5738 5740 5742 5744 5745 5747 5749 5750 5752 5754 5755 5757 5758 5758 5760 5761 5762 5764 5764 5766 5767 5769 5770 5771 5772 5774 5774 5775 5775 5776 5777 5779 5780 5781 5782 5783 5785 5787 5789 5790 5791
5640 5643 5646 5652 5658 5662 5667 5673 5679 5684 5688 5692 5697 5702 5706 5709 5712 5715 5718 5721 5726 5730 5733 5735 5737 5738 5740 5741 5743 5744 5746 5747 5749 5751 5752 5753 5754 5755 5756 5757 5758 5760 5761 5762 5763 5764 5765 5765 5766 5768 5769 5769 5770 5771 5772 5773 5774 5775 5776 5777 5778 5779 5778
5637 5641 5644 5648 5654 5660 5665 5670 5676 5681 5685 5690 5694 5699 5703 5706 5709 5711 5714 5716 5720 5723 5727 5729 5731 5732 5733 5735 5737 5738 5740 5741 5743 5744 5745 5747 5748 5749 5750 5751 5753 5755 5756 5756 5756 5758 5758 5758 5759 5760 5761 5761 5762 5763 5764 5765 5765 5766 5766 5764 5766 5769 5769
5634 5639 5642 5646 5650 5656 5662 5668 5674 5679 5683 5687 5691 5695 5697 5699 5702 5706 5709 5711 5714 5717 5720 5723 5725 5726 5727 5729 5731 5733 5734 5735 5736 5738 5739 5741 5743 5744 5744 5746 5748 5750 5750 5750 5751 5752 5753 5753 5753 5754 5754 5755 5756 5755 5755 5756 5757 5757 5755 5753 5753 5758 5758
5631 5636 5641 5645 5648 5653 5658 5664 5670 5674 5679 5683 5687 5690 5691 5693 5696 5700 5703 5705 5708 5711 5714 5716 5718 5720 5722 5723 5725 5727 5728 5729 5730 5732 5734 5736 5737 5738 5738 5740 5742 5743 5743 5744 5745 5746 5746 5746 5746 5746 5746 5748 5749 5747 5747 5748 5747 5746 5745 5742 5742 5745 5745
5629 5634 5640 5644 5647 5651 5655 5660 5665 5670 5675 5680 5683 5685 5687 5689 5691 5694 5698 5701 5704 5707 5709 5711 5713 5715 5716 5718 5720 5721 5722 5724 5725 5726 5728 5730 5731 5732 5733 5734 5736 5736 5737 5738 5738 5738 5738 5738 5738 5738 5738 5738 5739 5738 5739 5739 5737 5734 5733 5732 5732 5736 5738
5626 5632 5638 5642 5645 5648 5652 5656 5661 5666 5671 5676 5678 5680 5682 5684 5686 5689 5693 5697 5700 5702 5704 5706 5708 5710 5711 5713 5715 5716 5717 5718 5719 5721 5722 5724 5725 5726 5726 5727 5729 5730 5731 5732 5732 5731 5731 5730 5730 5730 5729 5728 5729 5729 5728 5728 5726 5723 5722 5724 5726 5729 5730